Time,TemperatureF,DewpointF,PressureIn,WindDirection,WindDirectionDegrees,WindSpeedMPH,WindSpeedGustMPH,Humidity,HourlyPrecipIn,Conditions,Clouds,dailyrainin,SolarRadiationWatts/m^2,SoftwareType,DateUTC
2013-12-29 00:02:00,32.0,31.0,-100.00,SE,139,4.0,7.0,96,0.00,,,0.03,0.000000,,2013-12-29 05:02:00,
2013-12-29 00:43:00,29.0,28.0,-100.00,ESE,107,5.0,11.0,95,0.00,,,0.03,0.000000,,2013-12-29 05:43:00,
2013-12-29 00:53:00,29.0,28.0,-100.00,ESE,107,5.0,11.0,95,0.00,,,0.03,0.000000,,2013-12-29 05:53:00,
2013-12-29 01:02:00,29.0,28.0,-100.00,ESE,107,5.0,11.0,95,0.00,,,0.03,0.000000,,2013-12-29 06:02:00,
2013-12-29 01:43:00,23.0,21.0,-100.00,ESE,108,5.0,14.0,93,0.00,,,0.03,0.000000,,2013-12-29 06:43:00,
2013-12-29 01:52:00,23.0,21.0,-100.00,ESE,108,5.0,14.0,93,0.00,,,0.03,0.000000,,2013-12-29 06:52:00,
2013-12-29 02:02:00,23.0,21.0,-100.00,ESE,108,5.0,14.0,93,0.00,,,0.03,0.000000,,2013-12-29 07:02:00,
2013-12-29 02:42:00,20.0,18.0,-100.00,East,93,5.0,12.0,92,0.00,,,0.03,0.000000,,2013-12-29 07:42:00,
2013-12-29 02:53:00,20.0,18.0,-100.00,East,93,5.0,12.0,92,0.00,,,0.03,0.000000,,2013-12-29 07:53:00,
2013-12-29 03:02:00,20.0,18.0,-100.00,East,93,5.0,12.0,92,0.00,,,0.03,0.000000,,2013-12-29 08:02:00,
2013-12-29 03:42:00,18.0,16.0,-100.00,East,88,4.0,11.0,92,0.00,,,0.03,0.000000,,2013-12-29 08:42:00,
2013-12-29 03:52:00,18.0,16.0,-100.00,East,88,4.0,11.0,92,0.00,,,0.03,0.000000,,2013-12-29 08:52:00,
2013-12-29 04:02:00,18.0,16.0,-100.00,East,88,4.0,11.0,92,0.00,,,0.03,0.000000,,2013-12-29 09:02:00,
2013-12-29 04:43:00,17.0,15.0,-100.00,NE,53,6.0,13.0,91,0.00,,,0.03,0.000000,,2013-12-29 09:43:00,
2013-12-29 04:53:00,17.0,15.0,-100.00,NE,53,6.0,13.0,91,0.00,,,0.03,0.000000,,2013-12-29 09:53:00,
2013-12-29 05:03:00,17.0,15.0,-100.00,NE,53,6.0,13.0,91,0.00,,,0.03,0.000000,,2013-12-29 10:03:00,
2013-12-29 05:43:00,16.0,14.0,-100.00,NE,40,9.0,13.0,90,0.00,,,0.03,0.000000,,2013-12-29 10:43:00,
2013-12-29 05:53:00,16.0,14.0,-100.00,NE,40,9.0,13.0,90,0.00,,,0.03,0.000000,,2013-12-29 10:53:00,
2013-12-29 06:02:00,16.0,14.0,-100.00,NE,40,9.0,13.0,90,0.00,,,0.03,0.000000,,2013-12-29 11:02:00,
2013-12-29 06:43:00,13.0,10.0,-100.00,ENE,70,5.0,13.0,88,0.00,,,0.03,0.000000,,2013-12-29 11:43:00,
2013-12-29 06:53:00,13.0,10.0,-100.00,ENE,70,5.0,13.0,88,0.00,,,0.03,0.000000,,2013-12-29 11:53:00,
2013-12-29 07:02:00,13.0,10.0,-100.00,ENE,70,5.0,13.0,88,0.00,,,0.03,0.000000,,2013-12-29 12:02:00,
2013-12-29 07:42:00,11.0,8.0,-100.00,NE,43,6.0,10.0,86,0.00,,,0.03,0.000000,,2013-12-29 12:42:00,
2013-12-29 07:52:00,11.0,8.0,-100.00,NE,43,6.0,10.0,86,0.00,,,0.03,0.000000,,2013-12-29 12:52:00,
2013-12-29 08:02:00,11.0,8.0,-100.00,NE,43,6.0,10.0,86,0.00,,,0.03,0.000000,,2013-12-29 13:02:00,
2013-12-29 08:42:00,11.0,7.0,-100.00,NNE,24,7.0,12.0,85,0.00,,,0.03,0.000000,,2013-12-29 13:42:00,
2013-12-29 08:53:00,11.0,7.0,-100.00,NNE,24,7.0,12.0,85,0.00,,,0.03,0.000000,,2013-12-29 13:53:00,
2013-12-29 09:02:00,11.0,7.0,-100.00,NNE,24,7.0,12.0,85,0.00,,,0.03,0.000000,,2013-12-29 14:02:00,
2013-12-29 09:42:00,11.0,7.0,-100.00,NNE,21,6.0,12.0,85,0.00,,,0.03,3.000000,,2013-12-29 14:42:00,
2013-12-29 09:52:00,11.0,7.0,-100.00,NNE,21,6.0,12.0,85,0.00,,,0.03,3.000000,,2013-12-29 14:52:00,
2013-12-29 10:02:00,11.0,7.0,-100.00,NNE,21,6.0,12.0,85,0.00,,,0.03,3.000000,,2013-12-29 15:02:00,
2013-12-29 10:44:00,12.0,8.0,-100.00,NNE,16,6.0,10.0,84,0.00,,,0.03,20.000000,,2013-12-29 15:44:00,
2013-12-29 10:53:00,12.0,8.0,-100.00,NNE,16,6.0,10.0,84,0.00,,,0.03,20.000000,,2013-12-29 15:53:00,
2013-12-29 11:03:00,12.0,8.0,-100.00,NNE,16,6.0,10.0,84,0.00,,,0.03,20.000000,,2013-12-29 16:03:00,
2013-12-29 11:43:00,11.0,7.0,-100.00,NNE,15,6.0,11.0,82,0.00,,,0.03,44.000000,,2013-12-29 16:43:00,
2013-12-29 11:53:00,11.0,7.0,-100.00,NNE,15,6.0,11.0,82,0.00,,,0.03,44.000000,,2013-12-29 16:53:00,
2013-12-29 12:02:00,11.0,7.0,-100.00,NNE,15,6.0,11.0,82,0.00,,,0.03,44.000000,,2013-12-29 17:02:00,
2013-12-29 12:42:00,10.0,5.0,-100.00,NNE,16,6.0,12.0,81,0.00,,,0.03,65.000000,,2013-12-29 17:42:00,
2013-12-29 12:52:00,10.0,5.0,-100.00,NNE,16,6.0,12.0,81,0.00,,,0.03,65.000000,,2013-12-29 17:52:00,
2013-12-29 13:02:00,10.0,5.0,-100.00,NNE,16,6.0,12.0,81,0.00,,,0.03,65.000000,,2013-12-29 18:02:00,
2013-12-29 13:42:00,9.0,4.0,-100.00,North,9,8.0,13.0,79,0.00,,,0.03,84.000000,,2013-12-29 18:42:00,
2013-12-29 13:53:00,9.0,4.0,-100.00,North,9,8.0,13.0,79,0.00,,,0.03,84.000000,,2013-12-29 18:53:00,
2013-12-29 14:01:00,9.0,4.0,-100.00,North,9,8.0,13.0,79,0.00,,,0.03,84.000000,,2013-12-29 19:01:00,
2013-12-29 14:43:00,9.0,4.0,-100.00,North,356,9.0,19.0,78,0.01,,,0.03,83.000000,,2013-12-29 19:43:00,
2013-12-29 14:52:00,9.0,4.0,-100.00,North,356,9.0,19.0,78,0.01,,,0.03,83.000000,,2013-12-29 19:52:00,
2013-12-29 15:02:00,9.0,4.0,-100.00,North,356,9.0,19.0,78,0.01,,,0.03,83.000000,,2013-12-29 20:02:00,
2013-12-29 15:42:00,8.0,3.0,-100.00,North,3,10.0,18.0,78,0.00,,,0.02,88.000000,,2013-12-29 20:42:00,
2013-12-29 15:53:00,8.0,3.0,-100.00,North,3,10.0,18.0,78,0.00,,,0.02,88.000000,,2013-12-29 20:53:00,
2013-12-29 16:02:00,8.0,3.0,-100.00,North,3,10.0,18.0,78,0.00,,,0.02,88.000000,,2013-12-29 21:02:00,
2013-12-29 16:43:00,8.0,3.0,-100.00,NNE,14,8.0,21.0,78,0.00,,,0.02,73.000000,,2013-12-29 21:43:00,
2013-12-29 16:53:00,8.0,3.0,-100.00,NNE,14,8.0,21.0,78,0.00,,,0.02,73.000000,,2013-12-29 21:53:00,
2013-12-29 17:03:00,8.0,3.0,-100.00,NNE,14,8.0,21.0,78,0.00,,,0.02,73.000000,,2013-12-29 22:03:00,
2013-12-29 17:42:00,8.0,3.0,-100.00,NNW,345,9.0,16.0,80,0.00,,,0.01,19.000000,,2013-12-29 22:42:00,
2013-12-29 17:52:00,8.0,3.0,-100.00,NNW,345,9.0,16.0,80,0.00,,,0.01,19.000000,,2013-12-29 22:52:00,
2013-12-29 18:02:00,8.0,3.0,-100.00,NNW,345,9.0,16.0,80,0.00,,,0.01,19.000000,,2013-12-29 23:02:00,
2013-12-29 18:42:00,7.0,2.0,-100.00,North,352,9.0,16.0,79,0.00,,,0.01,0.000000,,2013-12-29 23:42:00,
2013-12-29 18:53:00,7.0,2.0,-100.00,North,352,9.0,16.0,79,0.00,,,0.01,0.000000,,2013-12-29 23:53:00,
2013-12-29 19:02:00,7.0,2.0,-100.00,North,352,9.0,16.0,79,0.00,,,0.01,0.000000,,2013-12-30 00:02:00,
2013-12-29 19:22:00,7.0,1.0,-100.00,North,358,9.0,19.0,76,0.00,,,0.01,0.000000,,2013-12-30 00:22:00,
2013-12-29 19:33:00,7.0,1.0,-100.00,North,358,9.0,19.0,76,0.00,,,0.01,0.000000,,2013-12-30 00:33:00,
2013-12-29 19:42:00,7.0,1.0,-100.00,North,358,9.0,19.0,76,0.00,,,0.01,0.000000,,2013-12-30 00:42:00,
2013-12-29 19:53:00,7.0,1.0,-100.00,North,358,9.0,19.0,76,0.00,,,0.01,0.000000,,2013-12-30 00:53:00,
2013-12-29 20:02:00,7.0,1.0,-100.00,North,358,9.0,19.0,76,0.00,,,0.01,0.000000,,2013-12-30 01:02:00,
2013-12-29 20:43:00,6.0,0.0,-100.00,North,355,7.0,18.0,74,0.00,,,0.01,0.000000,,2013-12-30 01:43:00,
2013-12-29 20:52:00,6.0,0.0,-100.00,North,355,7.0,18.0,74,0.00,,,0.01,0.000000,,2013-12-30 01:52:00,
2013-12-29 21:02:00,6.0,0.0,-100.00,North,355,7.0,18.0,74,0.00,,,0.01,0.000000,,2013-12-30 02:02:00,
2013-12-29 21:42:00,5.0,-2.0,-100.00,North,351,8.0,16.0,73,0.00,,,0.01,0.000000,,2013-12-30 02:42:00,
2013-12-29 21:52:00,5.0,-2.0,-100.00,North,351,8.0,16.0,73,0.00,,,0.01,0.000000,,2013-12-30 02:52:00,
2013-12-29 22:02:00,5.0,-2.0,-100.00,North,351,8.0,16.0,73,0.00,,,0.01,0.000000,,2013-12-30 03:02:00,
2013-12-29 22:43:00,4.0,-3.0,-100.00,North,357,8.0,17.0,72,0.00,,,0.01,0.000000,,2013-12-30 03:43:00,
2013-12-29 22:54:00,4.0,-3.0,-100.00,North,357,8.0,17.0,72,0.00,,,0.01,0.000000,,2013-12-30 03:54:00,
2013-12-29 23:03:00,4.0,-3.0,-100.00,North,357,8.0,17.0,72,0.00,,,0.01,0.000000,,2013-12-30 04:03:00,
2013-12-29 23:43:00,5.0,-1.0,-100.00,North,2,5.0,14.0,76,0.00,,,0.01,0.000000,,2013-12-30 04:43:00,
2013-12-29 23:53:00,5.0,-1.0,-100.00,North,2,5.0,14.0,76,0.00,,,0.01,0.000000,,2013-12-30 04:53:00,